This is the latest recevied weather packets stored in our database for station/object DK0KTL-4. If no packets are shown the sender has not sent any weather packets the latest 10 day(s).
| Time | Temp. | Humidity | Pressure | Rain* | Wind** | Luminosity | Snow |
|---|---|---|---|---|---|---|---|
| 1778084251 | 20° C | 65% | 1003.2 hPa | 0 mm | - | - | - |
| 1778083651 | 19.44° C | 65% | 1003.1 hPa | 0 mm | - | - | - |
| 1778083350 | 19.44° C | 64% | 1003.2 hPa | 0 mm | - | - | - |
| 1778083050 | 19.44° C | 56% | 1003.2 hPa | 0 mm | - | - | - |
| 1778082750 | 19.44° C | 53% | 1003.2 hPa | 0 mm | - | - | - |
| 1778082149 | 19.44° C | 52% | 1003 hPa | 0 mm | - | - | - |
| 1778081549 | 20° C | 52% | 1003.2 hPa | 0 mm | - | - | - |
| 1778081248 | 20° C | 50% | 1003.2 hPa | 0 mm | - | - | - |
| 1778080948 | 20.56° C | 50% | 1003.3 hPa | 0 mm | - | - | - |
| 1778080648 | 20.56° C | 51% | 1003.4 hPa | 0 mm | - | - | - |
| 1778080348 | 21.11° C | 55% | 1003.5 hPa | 0 mm | - | - | - |
| 1778079447 | 20.56° C | 51% | 1003.5 hPa | 0 mm | - | - | - |
| 1778079146 | 20.56° C | 52% | 1003.4 hPa | 0 mm | - | - | - |
| 1778078846 | 20.56° C | 52% | 1003.5 hPa | 0 mm | - | - | - |
| 1778078546 | 20.56° C | 51% | 1003.6 hPa | 0 mm | - | - | - |
| 1778078245 | 20.56° C | 50% | 1003.6 hPa | 0 mm | - | - | - |
| 1778077945 | 20.56° C | 54% | 1003.7 hPa | 0 mm | - | - | - |
| 1778077645 | 20.56° C | 55% | 1003.5 hPa | 0 mm | - | - | - |
| 1778077345 | 20.56° C | 55% | 1003.6 hPa | 0 mm | - | - | - |
| 1778077044 | 21.11° C | 53% | 1003.6 hPa | 0 mm | - | - | - |
| 1778076744 | 21.11° C | 51% | 1003.6 hPa | 0 mm | - | - | - |
| 1778076444 | 21.11° C | 51% | 1003.6 hPa | 0 mm | - | - | - |
| 1778075843 | 20.56° C | 54% | 1003.6 hPa | 0 mm | - | - | - |
| 1778075543 | 20.56° C | 54% | 1003.7 hPa | 0 mm | - | - | - |
| 1778074942 | 21.11° C | 51% | 1003.8 hPa | 0 mm | - | - | - |
* Rain latest hour (hover to see other rain measurements)
** Current wind speed in m/s (hover to see current wind gust speed)